Year,Month,Day,Hour,Minute,Value (Times are PST for temperature in C)
2017,08,22,00,00,18.70
2017,08,22,00,01,18.60
2017,08,22,00,02,18.60
2017,08,22,00,03,18.60
2017,08,22,00,04,18.60
2017,08,22,00,05,18.50
2017,08,22,00,06,18.50
2017,08,22,00,07,18.40
2017,08,22,00,08,18.40
2017,08,22,00,09,18.40
2017,08,22,00,10,18.40
2017,08,22,00,11,18.40
2017,08,22,00,12,18.40
2017,08,22,00,13,18.30
2017,08,22,00,14,18.30
2017,08,22,00,15,18.30
2017,08,22,00,16,18.30
2017,08,22,00,17,18.40
2017,08,22,00,18,18.40
2017,08,22,00,19,18.40
2017,08,22,00,20,18.40
2017,08,22,00,21,18.40
2017,08,22,00,22,18.40
2017,08,22,00,23,18.40
2017,08,22,00,24,18.40
2017,08,22,00,25,18.40
2017,08,22,00,26,18.40
2017,08,22,00,27,18.40
2017,08,22,00,28,18.40
2017,08,22,00,29,18.30
2017,08,22,00,30,18.30
2017,08,22,00,31,18.30
2017,08,22,00,32,18.30
2017,08,22,00,33,18.30
2017,08,22,00,34,18.30
2017,08,22,00,35,18.30
2017,08,22,00,36,18.30
2017,08,22,00,37,18.30
2017,08,22,00,38,18.30
2017,08,22,00,39,18.20
2017,08,22,00,40,18.20
2017,08,22,00,41,18.20
2017,08,22,00,42,18.30
2017,08,22,00,43,18.30
2017,08,22,00,44,18.30
2017,08,22,00,45,18.40
2017,08,22,00,46,18.40
2017,08,22,00,47,18.50
2017,08,22,00,48,18.50
2017,08,22,00,49,18.60
2017,08,22,00,50,18.60
2017,08,22,00,51,18.60
2017,08,22,00,52,18.60
2017,08,22,00,53,18.60
2017,08,22,00,54,18.60
2017,08,22,00,55,18.60
2017,08,22,00,56,18.60
2017,08,22,00,57,18.50
2017,08,22,00,58,18.50
2017,08,22,00,59,18.50
2017,08,22,01,00,18.40
2017,08,22,01,01,18.40
2017,08,22,01,02,18.40
2017,08,22,01,03,18.30
2017,08,22,01,04,18.30
2017,08,22,01,05,18.30
2017,08,22,01,06,18.30
2017,08,22,01,07,18.20
2017,08,22,01,08,18.20
2017,08,22,01,09,18.20
2017,08,22,01,10,18.20
2017,08,22,01,11,18.10
2017,08,22,01,12,18.10
2017,08,22,01,13,18.10
2017,08,22,01,14,18.10
2017,08,22,01,15,18.00
2017,08,22,01,16,18.00
2017,08,22,01,17,18.00
2017,08,22,01,18,17.90
2017,08,22,01,19,17.90
2017,08,22,01,20,17.90
2017,08,22,01,21,17.90
2017,08,22,01,22,17.90
2017,08,22,01,23,17.90
2017,08,22,01,24,17.90
2017,08,22,01,25,17.90
2017,08,22,01,26,17.80
2017,08,22,01,27,17.80
2017,08,22,01,28,17.80
2017,08,22,01,29,17.80
2017,08,22,01,30,17.70
2017,08,22,01,31,17.70
2017,08,22,01,32,17.70
2017,08,22,01,33,17.60
2017,08,22,01,34,17.60
2017,08,22,01,35,17.60
2017,08,22,01,36,17.60
2017,08,22,01,37,17.50
2017,08,22,01,38,17.50
2017,08,22,01,39,17.40
2017,08,22,01,40,17.40
2017,08,22,01,41,17.40
2017,08,22,01,42,17.40
2017,08,22,01,43,17.40
2017,08,22,01,44,17.40
2017,08,22,01,45,17.30
2017,08,22,01,46,17.30
2017,08,22,01,47,17.30
2017,08,22,01,48,17.30
2017,08,22,01,49,17.30
2017,08,22,01,50,17.30
2017,08,22,01,51,17.30
2017,08,22,01,52,17.30
2017,08,22,01,53,17.40
2017,08,22,01,54,17.40
2017,08,22,01,55,17.50
2017,08,22,01,56,17.50
2017,08,22,01,57,17.60
2017,08,22,01,58,17.60
2017,08,22,01,59,17.60
2017,08,22,02,00,17.70
2017,08,22,02,01,17.80
2017,08,22,02,02,17.90
2017,08,22,02,03,18.10
2017,08,22,02,04,18.30
2017,08,22,02,05,18.50
2017,08,22,02,06,18.80
2017,08,22,02,07,19.10
2017,08,22,02,08,19.40
2017,08,22,02,09,19.60
2017,08,22,02,10,19.90
2017,08,22,02,11,20.00
2017,08,22,02,12,20.20
2017,08,22,02,13,20.30
2017,08,22,02,14,20.40
2017,08,22,02,15,20.50
2017,08,22,02,16,20.50
2017,08,22,02,17,20.60
2017,08,22,02,18,20.60
2017,08,22,02,19,20.70
2017,08,22,02,20,20.70
2017,08,22,02,21,20.70
2017,08,22,02,22,20.70
2017,08,22,02,23,20.60
2017,08,22,02,24,20.60
2017,08,22,02,25,20.60
2017,08,22,02,26,20.50
2017,08,22,02,27,20.50
2017,08,22,02,28,20.40
2017,08,22,02,29,20.40
2017,08,22,02,30,20.30
2017,08,22,02,31,20.10
2017,08,22,02,32,20.00
2017,08,22,02,33,19.80
2017,08,22,02,34,19.60
2017,08,22,02,35,19.40
2017,08,22,02,36,19.30
2017,08,22,02,37,19.20
2017,08,22,02,38,19.00
2017,08,22,02,39,18.90
2017,08,22,02,40,18.80
2017,08,22,02,41,18.80
2017,08,22,02,42,18.70
2017,08,22,02,43,18.70
2017,08,22,02,44,18.60
2017,08,22,02,45,18.60
2017,08,22,02,46,18.60
2017,08,22,02,47,18.60
2017,08,22,02,48,18.70
2017,08,22,02,49,18.70
2017,08,22,02,50,18.80
2017,08,22,02,51,18.90
2017,08,22,02,52,19.00
2017,08,22,02,53,19.00
2017,08,22,02,54,19.10
2017,08,22,02,55,19.20
2017,08,22,02,56,19.30
2017,08,22,02,57,19.30
2017,08,22,02,58,19.40
2017,08,22,02,59,19.50
2017,08,22,03,00,19.50
2017,08,22,03,01,19.60
2017,08,22,03,02,19.60
2017,08,22,03,03,19.70
2017,08,22,03,04,19.80
2017,08,22,03,05,19.80
2017,08,22,03,06,19.90
2017,08,22,03,07,19.90
2017,08,22,03,08,20.00
2017,08,22,03,09,20.00
2017,08,22,03,10,20.10
2017,08,22,03,11,20.10
2017,08,22,03,12,20.10
2017,08,22,03,13,20.20
2017,08,22,03,14,20.20
2017,08,22,03,15,20.20
2017,08,22,03,16,20.20
2017,08,22,03,17,20.20
2017,08,22,03,18,20.20
2017,08,22,03,19,20.30
2017,08,22,03,20,20.30
2017,08,22,03,21,20.30
2017,08,22,03,22,20.30
2017,08,22,03,23,20.30
2017,08,22,03,24,20.30
2017,08,22,03,25,20.30
2017,08,22,03,26,20.30
2017,08,22,03,27,20.30
2017,08,22,03,28,20.30
2017,08,22,03,29,20.30
2017,08,22,03,30,20.30
2017,08,22,03,31,20.30
2017,08,22,03,32,20.30
2017,08,22,03,33,20.20
2017,08,22,03,34,20.30
2017,08,22,03,35,20.30
2017,08,22,03,36,20.30
2017,08,22,03,37,20.30
2017,08,22,03,38,20.30
2017,08,22,03,39,20.20
2017,08,22,03,40,20.20
2017,08,22,03,41,20.20
2017,08,22,03,42,20.20
2017,08,22,03,43,20.20
2017,08,22,03,44,20.20
2017,08,22,03,45,20.10
2017,08,22,03,46,20.10
2017,08,22,03,47,20.10
2017,08,22,03,48,20.00
2017,08,22,03,49,20.00
2017,08,22,03,50,20.00
2017,08,22,03,51,19.90
2017,08,22,03,52,19.90
2017,08,22,03,53,19.90
2017,08,22,03,54,19.80
2017,08,22,03,55,19.80
2017,08,22,03,56,19.80
2017,08,22,03,57,19.70
2017,08,22,03,58,19.70
2017,08,22,03,59,19.60
2017,08,22,04,00,19.60
2017,08,22,04,01,19.50
2017,08,22,04,02,19.50
2017,08,22,04,03,19.40
2017,08,22,04,04,19.30
2017,08,22,04,05,19.30
2017,08,22,04,06,19.20
2017,08,22,04,07,19.20
2017,08,22,04,08,19.10
2017,08,22,04,09,19.00
2017,08,22,04,10,19.00
2017,08,22,04,11,18.90
2017,08,22,04,12,18.90
2017,08,22,04,13,18.80
2017,08,22,04,14,18.70
2017,08,22,04,15,18.70
2017,08,22,04,16,18.60
2017,08,22,04,17,18.60
2017,08,22,04,18,18.50
2017,08,22,04,19,18.50
2017,08,22,04,20,18.40
2017,08,22,04,21,18.40
2017,08,22,04,22,18.30
2017,08,22,04,23,18.30
2017,08,22,04,24,18.20
2017,08,22,04,25,18.20
2017,08,22,04,26,18.20
2017,08,22,04,27,18.10
2017,08,22,04,28,18.10
2017,08,22,04,29,18.10
2017,08,22,04,30,18.10
2017,08,22,04,31,18.10
2017,08,22,04,32,18.10
2017,08,22,04,33,18.10
2017,08,22,04,34,18.10
2017,08,22,04,35,18.10
2017,08,22,04,36,18.20
2017,08,22,04,37,18.20
2017,08,22,04,38,18.30
2017,08,22,04,39,18.30
2017,08,22,04,40,18.40
2017,08,22,04,41,18.50
2017,08,22,04,42,18.60
2017,08,22,04,43,18.70
2017,08,22,04,44,18.80
2017,08,22,04,45,18.90
2017,08,22,04,46,18.90
2017,08,22,04,47,19.00
2017,08,22,04,48,19.00
2017,08,22,04,49,19.10
2017,08,22,04,50,19.10
2017,08,22,04,51,19.10
2017,08,22,04,52,19.20
2017,08,22,04,53,19.20
2017,08,22,04,54,19.20
2017,08,22,04,55,19.30
2017,08,22,04,56,19.30
2017,08,22,04,57,19.30
2017,08,22,04,58,19.30
2017,08,22,04,59,19.40
2017,08,22,05,00,19.40
2017,08,22,05,01,19.40
2017,08,22,05,02,19.50
2017,08,22,05,03,19.50
2017,08,22,05,04,19.50
2017,08,22,05,05,19.50
2017,08,22,05,06,19.60
2017,08,22,05,07,19.60
2017,08,22,05,08,19.50
2017,08,22,05,09,19.50
2017,08,22,05,10,19.40
2017,08,22,05,11,19.40
2017,08,22,05,12,19.40
2017,08,22,05,13,19.30
2017,08,22,05,14,19.30
2017,08,22,05,15,19.20
2017,08,22,05,16,19.20
2017,08,22,05,17,19.10
2017,08,22,05,18,19.10
2017,08,22,05,19,19.10
2017,08,22,05,20,19.00
2017,08,22,05,21,19.00
2017,08,22,05,22,19.00
2017,08,22,05,23,19.00
2017,08,22,05,24,18.90
2017,08,22,05,25,18.90
2017,08,22,05,26,18.90
2017,08,22,05,27,18.90
2017,08,22,05,28,18.90
2017,08,22,05,29,18.90
2017,08,22,05,30,18.90
2017,08,22,05,31,18.90
2017,08,22,05,32,18.90
2017,08,22,05,33,18.90
2017,08,22,05,34,18.90
2017,08,22,05,35,18.90
2017,08,22,05,36,18.90
2017,08,22,05,37,18.90
2017,08,22,05,38,18.90
2017,08,22,05,39,18.80
2017,08,22,05,40,18.80
2017,08,22,05,41,18.80
2017,08,22,05,42,18.60
2017,08,22,05,43,18.50
2017,08,22,05,44,18.40
2017,08,22,05,45,18.30
2017,08,22,05,46,18.20
2017,08,22,05,47,18.10
2017,08,22,05,48,18.00
2017,08,22,05,49,17.90
2017,08,22,05,50,17.80
2017,08,22,05,51,17.70
2017,08,22,05,52,17.60
2017,08,22,05,53,17.50
2017,08,22,05,54,17.50
2017,08,22,05,55,17.40
2017,08,22,05,56,17.40
2017,08,22,05,57,17.30
2017,08,22,05,58,17.30
2017,08,22,05,59,17.20
2017,08,22,06,00,17.20
2017,08,22,06,01,17.10
2017,08,22,06,02,17.10
2017,08,22,06,03,17.10
2017,08,22,06,04,17.00
2017,08,22,06,05,17.00
2017,08,22,06,06,16.90
2017,08,22,06,07,16.90
2017,08,22,06,08,16.90
2017,08,22,06,09,16.80
2017,08,22,06,10,16.80
2017,08,22,06,11,16.80
2017,08,22,06,12,16.80
2017,08,22,06,13,16.80
2017,08,22,06,14,16.70
2017,08,22,06,15,16.70
2017,08,22,06,16,16.70
2017,08,22,06,17,16.70
2017,08,22,06,18,16.70
2017,08,22,06,19,16.70
2017,08,22,06,20,16.70
2017,08,22,06,21,16.80
2017,08,22,06,22,16.80
2017,08,22,06,23,16.90
2017,08,22,06,24,17.00
2017,08,22,06,25,17.10
2017,08,22,06,26,17.20
2017,08,22,06,27,17.30
2017,08,22,06,28,17.40
2017,08,22,06,29,17.50
2017,08,22,06,30,17.60
2017,08,22,06,31,17.70
2017,08,22,06,32,17.80
2017,08,22,06,33,17.80
2017,08,22,06,34,17.90
2017,08,22,06,35,18.00
2017,08,22,06,36,18.00
2017,08,22,06,37,18.10
2017,08,22,06,38,18.20
2017,08,22,06,39,18.20
2017,08,22,06,40,18.20
2017,08,22,06,41,18.20
2017,08,22,06,42,18.20
2017,08,22,06,43,18.20
2017,08,22,06,44,18.20
2017,08,22,06,45,18.20
2017,08,22,06,46,18.20
2017,08,22,06,47,18.20
2017,08,22,06,48,18.20
2017,08,22,06,49,18.20
2017,08,22,06,50,18.10
2017,08,22,06,51,18.10
2017,08,22,06,52,18.10
2017,08,22,06,53,18.10
2017,08,22,06,54,18.10
2017,08,22,06,55,18.10
2017,08,22,06,56,18.10
2017,08,22,06,57,18.10
2017,08,22,06,58,18.00
2017,08,22,06,59,18.00
2017,08,22,07,00,18.00
2017,08,22,07,01,18.00
2017,08,22,07,02,18.00
2017,08,22,07,03,18.00
2017,08,22,07,04,18.00
2017,08,22,07,05,18.00
2017,08,22,07,06,18.00
2017,08,22,07,07,18.10
2017,08,22,07,08,18.10
2017,08,22,07,09,18.20
2017,08,22,07,10,18.20
2017,08,22,07,11,18.20
2017,08,22,07,12,18.20
2017,08,22,07,13,18.20
2017,08,22,07,14,18.20
2017,08,22,07,15,18.20
2017,08,22,07,16,18.30
2017,08,22,07,17,18.30
2017,08,22,07,18,18.30
2017,08,22,07,19,18.30
2017,08,22,07,20,18.40
2017,08,22,07,21,18.40
2017,08,22,07,22,18.40
2017,08,22,07,23,18.50
2017,08,22,07,24,18.60
2017,08,22,07,25,18.70
2017,08,22,07,26,18.70
2017,08,22,07,27,18.70
2017,08,22,07,28,18.80
2017,08,22,07,29,18.80
2017,08,22,07,30,18.80
2017,08,22,07,31,18.80
2017,08,22,07,32,18.80
2017,08,22,07,33,18.80
2017,08,22,07,34,18.70
2017,08,22,07,35,18.70
2017,08,22,07,36,18.70
2017,08,22,07,37,18.70
2017,08,22,07,38,18.80
2017,08,22,07,39,18.80
2017,08,22,07,40,18.80
2017,08,22,07,41,18.80
2017,08,22,07,42,18.80
2017,08,22,07,43,18.80
2017,08,22,07,44,18.80
2017,08,22,07,45,18.80
2017,08,22,07,46,18.80
2017,08,22,07,47,18.80
2017,08,22,07,48,18.80
2017,08,22,07,49,18.80
2017,08,22,07,50,18.80
2017,08,22,07,51,18.80
2017,08,22,07,52,18.80
2017,08,22,07,53,18.90
2017,08,22,07,54,18.90
2017,08,22,07,55,19.00
2017,08,22,07,56,19.10
2017,08,22,07,57,19.10
2017,08,22,07,58,19.20
2017,08,22,07,59,19.30
2017,08,22,08,00,19.30
2017,08,22,08,01,19.40
2017,08,22,08,02,19.60
2017,08,22,08,03,19.70
2017,08,22,08,04,19.80
2017,08,22,08,05,19.90
2017,08,22,08,06,20.00
2017,08,22,08,07,20.10
2017,08,22,08,08,20.20
2017,08,22,08,09,20.30
2017,08,22,08,10,20.40
2017,08,22,08,11,20.50
2017,08,22,08,12,20.50
2017,08,22,08,13,20.60
2017,08,22,08,14,20.60
2017,08,22,08,15,20.60
2017,08,22,08,16,20.70
2017,08,22,08,17,20.70
2017,08,22,08,18,20.70
2017,08,22,08,19,20.80
2017,08,22,08,20,20.80
2017,08,22,08,21,20.80
2017,08,22,08,22,20.80
2017,08,22,08,23,20.80
2017,08,22,08,24,20.80
2017,08,22,08,25,20.80
2017,08,22,08,26,20.80
2017,08,22,08,27,20.80
2017,08,22,08,28,20.90
2017,08,22,08,29,20.90
2017,08,22,08,30,20.90
2017,08,22,08,31,20.90
2017,08,22,08,32,21.00
2017,08,22,08,33,21.10
2017,08,22,08,34,21.10
2017,08,22,08,35,21.20
2017,08,22,08,36,21.30
2017,08,22,08,37,21.30
2017,08,22,08,38,21.30
2017,08,22,08,39,21.30
2017,08,22,08,40,21.30
2017,08,22,08,41,21.30
2017,08,22,08,42,21.30
2017,08,22,08,43,21.40
2017,08,22,08,44,21.40
2017,08,22,08,45,21.50
2017,08,22,08,46,21.60
2017,08,22,08,47,21.60
2017,08,22,08,48,21.70
2017,08,22,08,49,21.70
2017,08,22,08,50,21.60
2017,08,22,08,51,21.60
2017,08,22,08,52,21.60
2017,08,22,08,53,21.60
2017,08,22,08,54,21.50
2017,08,22,08,55,21.60
2017,08,22,08,56,21.60
2017,08,22,08,57,21.60
2017,08,22,08,58,21.70
2017,08,22,08,59,21.70
2017,08,22,09,00,21.70
2017,08,22,09,01,21.80
2017,08,22,09,02,21.80
2017,08,22,09,03,21.80
2017,08,22,09,04,21.70
2017,08,22,09,05,21.60
2017,08,22,09,06,21.60
2017,08,22,09,07,21.50
2017,08,22,09,08,21.50
2017,08,22,09,09,21.40
2017,08,22,09,10,21.40
2017,08,22,09,11,21.40
2017,08,22,09,12,21.40
2017,08,22,09,13,21.40
2017,08,22,09,14,21.40
2017,08,22,09,15,21.40
2017,08,22,09,16,21.50
2017,08,22,09,17,21.50
2017,08,22,09,18,21.50
2017,08,22,09,19,21.50
2017,08,22,09,20,21.50
2017,08,22,09,21,21.40
2017,08,22,09,22,21.40
2017,08,22,09,23,21.40
2017,08,22,09,24,21.50
2017,08,22,09,25,21.50
2017,08,22,09,26,21.60
2017,08,22,09,27,21.60
2017,08,22,09,28,21.70
2017,08,22,09,29,21.70
2017,08,22,09,30,21.70
2017,08,22,09,31,21.70
2017,08,22,09,32,21.70
2017,08,22,09,33,21.70
2017,08,22,09,34,21.70
2017,08,22,09,35,21.70
2017,08,22,09,36,21.70
2017,08,22,09,37,21.70
2017,08,22,09,38,21.60
2017,08,22,09,39,21.60
2017,08,22,09,40,21.50
2017,08,22,09,41,21.40
2017,08,22,09,42,21.40
2017,08,22,09,43,21.40
2017,08,22,09,44,21.40
2017,08,22,09,45,21.40
2017,08,22,09,46,21.40
2017,08,22,09,47,21.40
2017,08,22,09,48,21.50
2017,08,22,09,49,21.50
2017,08,22,09,50,21.60
2017,08,22,09,51,21.60
2017,08,22,09,52,21.70
2017,08,22,09,53,21.70
2017,08,22,09,54,21.70
2017,08,22,09,55,21.70
2017,08,22,09,56,21.70
2017,08,22,09,57,21.70
2017,08,22,09,58,21.70
2017,08,22,09,59,21.80
2017,08,22,10,00,21.80
2017,08,22,10,01,21.80
2017,08,22,10,02,21.80
2017,08,22,10,03,21.90
2017,08,22,10,04,21.90
2017,08,22,10,05,22.00
2017,08,22,10,06,22.00
2017,08,22,10,07,22.10
2017,08,22,10,08,22.20
2017,08,22,10,09,22.30
2017,08,22,10,10,22.40
2017,08,22,10,11,22.50
2017,08,22,10,12,22.50
2017,08,22,10,13,22.60
2017,08,22,10,14,22.70
2017,08,22,10,15,22.70
2017,08,22,10,16,22.80
2017,08,22,10,17,22.80
2017,08,22,10,18,22.80
2017,08,22,10,19,22.80
2017,08,22,10,20,22.80
2017,08,22,10,21,22.80
2017,08,22,10,22,22.80
2017,08,22,10,23,22.80
2017,08,22,10,24,22.80
2017,08,22,10,25,22.80
2017,08,22,10,26,22.80
2017,08,22,10,27,22.80
2017,08,22,10,28,22.80
2017,08,22,10,29,22.80
2017,08,22,10,30,22.80
2017,08,22,10,31,22.70
2017,08,22,10,32,22.70
2017,08,22,10,33,22.60
2017,08,22,10,34,22.50
2017,08,22,10,35,22.40
2017,08,22,10,36,22.30
2017,08,22,10,37,22.20
2017,08,22,10,38,22.20
2017,08,22,10,39,22.10
2017,08,22,10,40,22.10
2017,08,22,10,41,22.10
2017,08,22,10,42,22.10
2017,08,22,10,43,22.10
2017,08,22,10,44,22.00
2017,08,22,10,45,22.00
2017,08,22,10,46,22.00
2017,08,22,10,47,22.10
2017,08,22,10,48,22.20
2017,08,22,10,49,22.20
2017,08,22,10,50,22.30
2017,08,22,10,51,22.40
2017,08,22,10,52,22.60
2017,08,22,10,53,22.80
2017,08,22,10,54,22.90
2017,08,22,10,55,23.00
2017,08,22,10,56,23.10
2017,08,22,10,57,23.20
2017,08,22,10,58,23.20
2017,08,22,10,59,23.20
2017,08,22,11,00,23.20
2017,08,22,11,01,23.20
2017,08,22,11,02,23.30
2017,08,22,11,03,23.30
2017,08,22,11,04,23.40
2017,08,22,11,05,23.50
2017,08,22,11,06,23.60
2017,08,22,11,07,23.50
2017,08,22,11,08,23.60
2017,08,22,11,09,23.60
2017,08,22,11,10,23.70
2017,08,22,11,11,23.80
2017,08,22,11,12,23.80
2017,08,22,11,13,23.80
2017,08,22,11,14,23.80
2017,08,22,11,15,23.80
2017,08,22,11,16,23.90
2017,08,22,11,17,23.90
2017,08,22,11,18,24.00
2017,08,22,11,19,24.10
2017,08,22,11,20,24.10
2017,08,22,11,21,24.00
2017,08,22,11,22,24.00
2017,08,22,11,23,24.00
2017,08,22,11,24,24.00
2017,08,22,11,25,24.00
2017,08,22,11,26,23.90
2017,08,22,11,27,23.90
2017,08,22,11,28,23.90
2017,08,22,11,29,23.90
2017,08,22,11,30,23.90
2017,08,22,11,31,23.90
2017,08,22,11,32,23.90
2017,08,22,11,33,23.90
2017,08,22,11,34,23.90
2017,08,22,11,35,23.90
2017,08,22,11,36,23.90
2017,08,22,11,37,23.80
2017,08,22,11,38,23.80
2017,08,22,11,39,23.70
2017,08,22,11,40,23.80
2017,08,22,11,41,23.90
2017,08,22,11,42,24.00
2017,08,22,11,43,24.10
2017,08,22,11,44,24.10
2017,08,22,11,45,24.00
2017,08,22,11,46,24.00
2017,08,22,11,47,24.00
2017,08,22,11,48,24.10
2017,08,22,11,49,24.10
2017,08,22,11,50,24.10
2017,08,22,11,51,24.10
2017,08,22,11,52,24.10
2017,08,22,11,53,24.10
2017,08,22,11,54,24.00
2017,08,22,11,55,24.00
2017,08,22,11,56,23.90
2017,08,22,11,57,23.90
2017,08,22,11,58,23.80
2017,08,22,11,59,23.80
2017,08,22,12,00,23.70
2017,08,22,12,01,23.70
2017,08,22,12,02,23.80
2017,08,22,12,03,23.80
2017,08,22,12,04,23.80
2017,08,22,12,05,23.90
2017,08,22,12,06,23.80
2017,08,22,12,07,23.70
2017,08,22,12,08,23.70
2017,08,22,12,09,23.60
2017,08,22,12,10,23.60
2017,08,22,12,11,23.70
2017,08,22,12,12,23.70
2017,08,22,12,13,23.80
2017,08,22,12,14,23.90
2017,08,22,12,15,23.90
2017,08,22,12,16,24.00
2017,08,22,12,17,24.10
2017,08,22,12,18,24.20
2017,08,22,12,19,24.20
2017,08,22,12,20,24.20
2017,08,22,12,21,24.20
2017,08,22,12,22,24.20
2017,08,22,12,23,24.30
2017,08,22,12,24,24.30
2017,08,22,12,25,24.40
2017,08,22,12,26,24.40
2017,08,22,12,27,24.30
2017,08,22,12,28,24.30
2017,08,22,12,29,24.20
2017,08,22,12,30,24.20
2017,08,22,12,31,24.10
2017,08,22,12,32,24.00
2017,08,22,12,33,23.90
2017,08,22,12,34,23.90
2017,08,22,12,35,23.80
2017,08,22,12,36,23.80
2017,08,22,12,37,23.80
2017,08,22,12,38,23.80
2017,08,22,12,39,23.80
2017,08,22,12,40,23.90
2017,08,22,12,41,24.00
2017,08,22,12,42,24.10
2017,08,22,12,43,24.20
2017,08,22,12,44,24.30
2017,08,22,12,45,24.40
2017,08,22,12,46,24.50
2017,08,22,12,47,24.50
2017,08,22,12,48,24.50
2017,08,22,12,49,24.60
2017,08,22,12,50,24.60
2017,08,22,12,51,24.50
2017,08,22,12,52,24.50
2017,08,22,12,53,24.50
2017,08,22,12,54,24.50
2017,08,22,12,55,24.50
2017,08,22,12,56,24.60
2017,08,22,12,57,24.60
2017,08,22,12,58,24.70
2017,08,22,12,59,24.80
2017,08,22,13,00,24.80
2017,08,22,13,01,24.80
2017,08,22,13,02,24.80
2017,08,22,13,03,24.80
2017,08,22,13,04,24.80
2017,08,22,13,05,24.90
2017,08,22,13,06,24.90
2017,08,22,13,07,24.90
2017,08,22,13,08,25.00
2017,08,22,13,09,25.00
2017,08,22,13,10,24.90
2017,08,22,13,11,24.80
2017,08,22,13,12,24.80
2017,08,22,13,13,24.80
2017,08,22,13,14,24.80
2017,08,22,13,15,24.70
2017,08,22,13,16,24.70
2017,08,22,13,17,24.60
2017,08,22,13,18,24.50
2017,08,22,13,19,24.50
2017,08,22,13,20,24.50
2017,08,22,13,21,24.60
2017,08,22,13,22,24.70
2017,08,22,13,23,24.80
2017,08,22,13,24,24.80
2017,08,22,13,25,24.80
2017,08,22,13,26,24.90
2017,08,22,13,27,24.90
2017,08,22,13,28,24.90
2017,08,22,13,29,24.90
2017,08,22,13,30,24.90
2017,08,22,13,31,25.00
2017,08,22,13,32,25.10
2017,08,22,13,33,25.10
2017,08,22,13,34,25.10
2017,08,22,13,35,25.10
2017,08,22,13,36,25.10
2017,08,22,13,37,25.10
2017,08,22,13,38,25.10
2017,08,22,13,39,25.20
2017,08,22,13,40,25.20
2017,08,22,13,41,25.30
2017,08,22,13,42,25.30
2017,08,22,13,43,25.40
2017,08,22,13,44,25.50
2017,08,22,13,45,25.50
2017,08,22,13,46,25.50
2017,08,22,13,47,25.40
2017,08,22,13,48,25.40
2017,08,22,13,49,25.40
2017,08,22,13,50,25.40
2017,08,22,13,51,25.30
2017,08,22,13,52,25.30
2017,08,22,13,53,25.20
2017,08,22,13,54,25.20
2017,08,22,13,55,25.10
2017,08,22,13,56,25.10
2017,08,22,13,57,25.10
2017,08,22,13,58,25.10
2017,08,22,13,59,25.00
2017,08,22,14,00,24.90
2017,08,22,14,01,24.90
2017,08,22,14,02,24.90
2017,08,22,14,03,24.90
2017,08,22,14,04,25.00
2017,08,22,14,05,25.10
2017,08,22,14,06,25.10
2017,08,22,14,07,25.20
2017,08,22,14,08,25.20
2017,08,22,14,09,25.30
2017,08,22,14,10,25.30
2017,08,22,14,11,25.30
2017,08,22,14,12,25.40
2017,08,22,14,13,25.50
2017,08,22,14,14,25.50
2017,08,22,14,15,25.50
2017,08,22,14,16,25.50
2017,08,22,14,17,25.60
2017,08,22,14,18,25.60
2017,08,22,14,19,25.60
2017,08,22,14,20,25.70
2017,08,22,14,21,25.90
2017,08,22,14,22,25.90
2017,08,22,14,23,26.10
2017,08,22,14,24,26.20
2017,08,22,14,25,26.30
2017,08,22,14,26,26.30
2017,08,22,14,27,26.40
2017,08,22,14,28,26.50
2017,08,22,14,29,26.60
2017,08,22,14,30,26.70
2017,08,22,14,31,26.80
2017,08,22,14,32,26.80
2017,08,22,14,33,26.90
2017,08,22,14,34,27.00
2017,08,22,14,35,27.10
2017,08,22,14,36,27.10
2017,08,22,14,37,27.20
2017,08,22,14,38,27.30
2017,08,22,14,39,27.30
2017,08,22,14,40,27.40
2017,08,22,14,41,27.50
2017,08,22,14,42,27.50
2017,08,22,14,43,27.60
2017,08,22,14,44,27.60
2017,08,22,14,45,27.60
2017,08,22,14,46,27.70
2017,08,22,14,47,27.80
2017,08,22,14,48,27.80
2017,08,22,14,49,27.90
2017,08,22,14,50,27.90
2017,08,22,14,51,27.90
2017,08,22,14,52,28.00
2017,08,22,14,53,28.10
2017,08,22,14,54,28.10
2017,08,22,14,55,28.20
2017,08,22,14,56,28.30
2017,08,22,14,57,28.30
2017,08,22,14,58,28.30
2017,08,22,14,59,28.30
2017,08,22,15,00,28.30
2017,08,22,15,01,28.30
2017,08,22,15,02,28.20
2017,08,22,15,03,28.20
2017,08,22,15,04,28.20
2017,08,22,15,05,28.20
2017,08,22,15,06,28.30
2017,08,22,15,07,28.30
2017,08,22,15,08,28.30
2017,08,22,15,09,28.30
2017,08,22,15,10,28.30
2017,08,22,15,11,28.30
2017,08,22,15,12,28.30
2017,08,22,15,13,28.20
2017,08,22,15,14,28.10
2017,08,22,15,15,28.10
2017,08,22,15,16,28.10
2017,08,22,15,17,28.10
2017,08,22,15,18,28.10
2017,08,22,15,19,28.10
2017,08,22,15,20,28.20
2017,08,22,15,21,28.20
2017,08,22,15,22,28.30
2017,08,22,15,23,28.40
2017,08,22,15,24,28.50
2017,08,22,15,25,28.60
2017,08,22,15,26,28.60
2017,08,22,15,27,28.50
2017,08,22,15,28,28.50
2017,08,22,15,29,28.50
2017,08,22,15,30,28.50
2017,08,22,15,31,28.60
2017,08,22,15,32,28.70
2017,08,22,15,33,28.90
2017,08,22,15,34,28.90
2017,08,22,15,35,29.00
2017,08,22,15,36,29.00
2017,08,22,15,37,29.00
2017,08,22,15,38,29.00
2017,08,22,15,39,28.90
2017,08,22,15,40,28.90
2017,08,22,15,41,28.90
2017,08,22,15,42,28.90
2017,08,22,15,43,28.90
2017,08,22,15,44,28.90
2017,08,22,15,45,28.90
2017,08,22,15,46,28.90
2017,08,22,15,47,29.00
2017,08,22,15,48,29.00
2017,08,22,15,49,29.00
2017,08,22,15,50,28.90
2017,08,22,15,51,28.80
2017,08,22,15,52,28.80
2017,08,22,15,53,28.70
2017,08,22,15,54,28.70
2017,08,22,15,55,28.80
2017,08,22,15,56,28.80
2017,08,22,15,57,28.90
2017,08,22,15,58,28.90
2017,08,22,15,59,29.00
2017,08,22,16,00,29.00
2017,08,22,16,01,29.10
2017,08,22,16,02,29.10
2017,08,22,16,03,29.20
2017,08,22,16,04,29.20
2017,08,22,16,05,29.20
2017,08,22,16,06,29.20
2017,08,22,16,07,29.10
2017,08,22,16,08,29.00
2017,08,22,16,12,28.80
2017,08,22,16,13,28.90
2017,08,22,16,14,28.90
2017,08,22,16,15,28.80
2017,08,22,16,16,28.80
2017,08,22,16,17,28.80
2017,08,22,16,18,28.90
2017,08,22,16,19,29.00
2017,08,22,16,20,29.10
2017,08,22,16,21,29.10
2017,08,22,16,22,29.20
2017,08,22,16,23,29.20
2017,08,22,16,24,29.20
2017,08,22,16,25,29.30
2017,08,22,16,26,29.30
2017,08,22,16,27,29.20
2017,08,22,16,28,29.20
2017,08,22,16,29,29.30
2017,08,22,16,30,29.30
2017,08,22,16,31,29.30
2017,08,22,16,32,29.30
2017,08,22,16,33,29.30
2017,08,22,16,34,29.30
2017,08,22,16,35,29.30
2017,08,22,16,36,29.30
2017,08,22,16,37,29.30
2017,08,22,16,38,29.30
2017,08,22,16,39,29.30
2017,08,22,16,40,29.20
2017,08,22,16,41,29.20
2017,08,22,16,42,29.20
2017,08,22,16,43,29.20
2017,08,22,16,44,29.20
2017,08,22,16,45,29.10
2017,08,22,16,46,29.20
2017,08,22,16,47,29.20
2017,08,22,16,48,29.20
2017,08,22,16,49,29.10
2017,08,22,16,50,29.10
2017,08,22,16,51,29.00
2017,08,22,16,52,29.00
2017,08,22,16,53,28.90
2017,08,22,16,54,29.00
2017,08,22,16,55,29.10
2017,08,22,16,56,29.10
2017,08,22,16,57,29.10
2017,08,22,16,58,29.20
2017,08,22,16,59,29.30
2017,08,22,17,00,29.40
2017,08,22,17,01,29.50
2017,08,22,17,02,29.70
2017,08,22,17,03,29.70
2017,08,22,17,04,29.70
2017,08,22,17,05,29.80
2017,08,22,17,06,29.80
2017,08,22,17,07,29.80
2017,08,22,17,08,29.80
2017,08,22,17,09,29.80
2017,08,22,17,10,29.90
2017,08,22,17,11,29.90
2017,08,22,17,12,29.80
2017,08,22,17,13,29.70
2017,08,22,17,14,29.70
2017,08,22,17,15,29.60
2017,08,22,17,16,29.60
2017,08,22,17,17,29.50
2017,08,22,17,18,29.40
2017,08,22,17,19,29.30
2017,08,22,17,20,29.30
2017,08,22,17,21,29.30
2017,08,22,17,22,29.30